Location: ??????
(41.3747°N, 22.5491°E)
Time: 08:27:30
(UTC+00:00)

Lacrosse 4 Rocket - Pass Details

Date: 01 December 2020
Orbit: 538 x 620 km, 68.0° (Epoch: 17 January)

Event Time Altitude Azimuth Distance (km) Brightness Sun altitude
Rises 17:43:30 0° 218° (SW) 2,680 5.4 -29.8°
Reaches altitude 10° 17:45:42 10° 223° (SW) 1,797 4.4 -30.3°
Enters shadow 17:47:14 22° 231° (SW) 1,216 3.5 -30.5°
